Location: Unspecified
(40.7945°N, 111.1337°W)
Time: 22:32:24
(UTC-06:00)

Altair - Pass Details

Date: 02 July 2019
Orbit: 1501 x 1683 km, 47.2° (Epoch: 22 July)

Event Time Altitude Azimuth Distance (km) Brightness Sun altitude
Rises 00:50:42 0° 298° (WNW) 4,786 10.6 -25.6°
Reaches altitude 10° 00:53:47 10° 295° (WNW) 3,823 10.0 -25.6°
Maximum altitude 01:03:21 61° 219° (SW) 1,832 7.6 -25.9°
Enters shadow 01:06:44 43° 162° (SSE) 2,203 7.8 -26.0°
